Weather History for KLUK - December, 2014

Change the Weather History Date:

Sunday, December 28, 2014

  Actual Average Record
Temperature  
Mean Temperature 40 °F -  
Max Temperature 46 °F 41 °F 68 °F (1984)
Min Temperature 32 °F 25 °F 4 °F (1950)
Degree Days  
Heating Degree Days 26    
Moisture  
Dew Point 36 °F    
Average Humidity 90    
Maximum Humidity 100    
Minimum Humidity 73    
Precipitation  
Precipitation 0.05 in - - ()
Sea Level Pressure  
Sea Level Pressure 30.14 in    
Wind  
Wind Speed 4 mph (NW)    
Max Wind Speed 12 mph    
Max Gust Speed 16 mph    
Visibility 9 miles    
Events Rain    
Averages and records for this station are not official NWS values.
T = Trace of Precipitation, MM = Missing Value Source: NWS Daily Summary

Daily Weather History Graph

Daily Weather History Graph

Search for Another Location

Airport or City:

Trip Planner

Search our weather history database for the weather conditions in past years. The results will help you decide how hot, cold, wet, or windy it might be!

Date:

Astronomy

Dec. 28, 2014 Rise Set
Actual Time 7:56 AM EST 5:22 PM EST
Civil Twilight 7:26 AM EST 5:52 PM EST
Nautical Twilight 6:52 AM EST 6:26 PM EST
Astronomical Twilight 6:19 AM EST 6:58 PM EST
Moon 12:21 PM EST (12/28) 12:08 AM EST (12/28)
Length of Visible Light 10h 26m
Length of Day
9h 26m
Waxing Crescent, 49% of the Moon is Illuminated
Dec 28
Waxing Crescent
Dec 28
First Quarter
Jan 4
Full
Jan 13
Last Quarter
Jan 20
New

Hourly Weather History & Observations

Time (EST) Temp. Windchill Dew Point Humidity Pressure Visibility Wind Dir Wind Speed Gust Speed Precip Events Conditions
12:08 AM 46.9 °F - 46.9 °F 100% 30.07 in 4.0 mi Calm Calm - 0.01 in Rain Light Rain
12:31 AM 46.0 °F - 46.0 °F 100% 30.06 in 4.0 mi Calm Calm - 0.02 in Rain Rain
12:38 AM 46.0 °F 44.8 °F 46.0 °F 100% 30.06 in 3.0 mi South 3.5 mph - 0.04 in Rain Rain
12:53 AM 46.4 °F - 46.4 °F 100% 30.05 in 8.0 mi Calm Calm - N/A Rain Light Rain
1:12 AM 46.0 °F 43.1 °F 46.0 °F 100% 30.06 in 9.0 mi SW 5.8 mph - 0.00 in Rain Light Rain
1:27 AM 46.0 °F 43.1 °F 46.0 °F 100% 30.03 in 5.0 mi SSE 5.8 mph - 0.02 in Rain Rain
1:37 AM 46.0 °F 44.8 °F 46.0 °F 100% 30.02 in 5.0 mi SSE 3.5 mph - 0.04 in Rain Rain
1:53 AM 45.0 °F 41.8 °F 45.0 °F 100% 30.01 in 10.0 mi NNE 5.8 mph - 0.05 in Rain Light Rain
2:07 AM 44.1 °F 38.1 °F 44.1 °F 100% 30.02 in 10.0 mi NNW 11.5 mph - 0.00 in Rain Light Rain
2:46 AM 43.0 °F 37.7 °F 42.1 °F 97% 30.06 in 10.0 mi WNW 9.2 mph - 0.00 in   Overcast
2:53 AM 43.0 °F 37.7 °F 42.1 °F 97% 30.08 in 10.0 mi WNW 9.2 mph - 0.00 in   Overcast
3:07 AM 42.1 °F 36.6 °F 41.0 °F 96% 30.07 in 10.0 mi NW 9.2 mph 16.1 mph N/A   Overcast
3:53 AM 39.9 °F - 39.0 °F 97% 30.09 in 9.0 mi Calm Calm - 0.00 in   Overcast
4:44 AM 37.9 °F 34.4 °F 37.0 °F 97% 30.10 in 9.0 mi WNW 4.6 mph - N/A   Overcast
4:53 AM 37.9 °F 32.1 °F 37.0 °F 97% 30.11 in 8.0 mi WNW 8.1 mph - N/A   Overcast
5:32 AM 37.9 °F - 35.1 °F 89% 30.11 in 10.0 mi Calm Calm - N/A   Overcast
5:53 AM 37.9 °F 34.4 °F 35.1 °F 89% 30.12 in 10.0 mi NW 4.6 mph - N/A   Overcast
6:53 AM 36.0 °F 31.1 °F 35.1 °F 97% 30.15 in 4.0 mi NW 5.8 mph - N/A   Overcast
7:53 AM 36.0 °F 29.6 °F 35.1 °F 97% 30.14 in 6.0 mi NW 8.1 mph - N/A   Overcast
8:53 AM 36.0 °F 29.0 °F 34.0 °F 93% 30.16 in 10.0 mi North 9.2 mph - N/A   Overcast
9:53 AM 36.0 °F 30.3 °F 33.1 °F 89% 30.18 in 7.0 mi North 6.9 mph - N/A   Overcast
10:53 AM 35.1 °F 27.9 °F 32.0 °F 89% 30.18 in 8.0 mi NNW 9.2 mph - N/A   Overcast
11:53 AM 35.1 °F 30.1 °F 30.9 °F 85% 30.18 in 10.0 mi NW 5.8 mph - N/A   Overcast
12:53 PM 37.0 °F 31.0 °F 30.9 °F 79% 30.17 in 10.0 mi NW 8.1 mph - N/A   Mostly Cloudy
1:53 PM 37.0 °F 31.6 °F 28.9 °F 73% 30.16 in 10.0 mi NNW 6.9 mph - N/A   Overcast
2:53 PM 37.9 °F 33.5 °F 30.0 °F 73% 30.17 in 10.0 mi NW 5.8 mph - N/A   Overcast
3:53 PM 37.0 °F 32.4 °F 30.0 °F 76% 30.18 in 10.0 mi NNW 5.8 mph - N/A   Overcast
4:53 PM 37.0 °F 32.4 °F 30.0 °F 76% 30.19 in 10.0 mi NW 5.8 mph - N/A   Overcast
5:53 PM 36.0 °F 32.1 °F 30.0 °F 79% 30.20 in 10.0 mi NW 4.6 mph - N/A   Overcast
6:53 PM 36.0 °F 30.3 °F 30.0 °F 79% 30.22 in 10.0 mi WNW 6.9 mph - N/A   Overcast
7:53 PM 35.1 °F 30.1 °F 30.0 °F 82% 30.22 in 10.0 mi NW 5.8 mph - N/A   Overcast
8:53 PM 35.1 °F - 28.9 °F 78% 30.22 in 10.0 mi Calm Calm - N/A   Clear
9:51 PM 33.8 °F - 30.2 °F 87% 30.21 in 10.0 mi Calm Calm - N/A   Overcast
9:53 PM 34.0 °F - 30.0 °F 85% 30.22 in 10.0 mi Calm Calm - N/A   Overcast
10:53 PM 34.0 °F - 30.0 °F 85% 30.25 in 10.0 mi Calm Calm - N/A   Overcast
11:38 PM 33.1 °F 28.7 °F 30.0 °F 89% 30.25 in 10.0 mi North 4.6 mph - N/A   Scattered Clouds
11:53 PM 32.0 °F 26.4 °F 30.0 °F 92% 30.25 in 9.0 mi North 5.8 mph - N/A   Clear